User: anonymous   Login
Location: Radomski Observatory
(40.2854°N, 79.5145°W)
Time: 15:49:00
(UTC-04:00)
Language:

Uosat F - Orbit

View from above orbital plane
View from above orbital plane
View from above satellite
View from above satellite

Ground track
Ground track

The orbit data is extracted from the following two-line orbital elements,

1 21575U 91050B   16118.92560054 +.00000051 +00000-0 +30497-4 0  9996
2 21575 098.7607 119.2703 0008496 095.3873 264.8284 14.40733849301285
Epoch (UTC): 27 April 2016 22:12:51
Eccentricity: 0.0008496
inclination: 98.7607°
perigee height: 750 km
apogee height: 762 km
right ascension of ascending node: 119.2703°
argument of perigee: 95.3873°
revolutions per day: 14.40733849
mean anomaly at epoch: 264.8284°
orbit number at epoch: 30128

The dashed part of the orbit path shows where the satellite is in the earth's shadow,  

DLR